Theta_e
343 345 346 347 348 348 349 349 347 346 346 347 347 346 346 346 345 349 349 349 345 344 342 342 342 345 346 345 345 346 347 346 345 344 346 345 345 344 344 344 343 342 342 341 341 340 340 340 340 340 339 337 336 328 328 328 330 332 332 334 336 332
341 343 346 347 348 348 348 346 343 342 343 344 345 345 344 340 346 342 348 346 342 344 341 340 341 346 343 344 344 346 347 345 345 345 345 345 344 344 344 344 343 342 341 340 340 326 327 335 338 338 338 337 327 324 327 328 329 330 332 332 334 334
341 343 345 346 347 348 345 344 342 340 341 343 343 342 340 344 340 341 342 342 341 341 339 340 340 343 343 346 345 346 346 345 346 346 345 345 344 344 343 343 343 342 340 340 328 324 321 323 327 335 333 327 324 324 325 327 328 330 331 330 330 338
342 342 343 344 346 345 344 344 342 341 341 341 342 341 337 339 340 339 341 340 339 340 339 338 345 344 345 341 343 345 344 345 344 346 345 343 344 343 343 343 342 341 339 332 325 325 323 321 324 322 321 323 324 324 324 325 327 329 330 335 331 340
340 340 341 343 343 342 341 341 341 341 339 338 338 337 337 334 340 338 339 338 338 338 338 336 336 337 338 338 339 339 341 341 341 340 343 335 335 337 337 332 332 333 327 328 326 323 324 323 324 323 322 323 325 324 323 326 326 328 329 332 332 341
339 339 341 340 339 342 340 338 337 338 337 337 336 335 335 335 337 335 336 337 338 336 335 334 333 333 333 337 338 337 337 338 337 338 338 335 333 334 334 332 329 328 326 326 327 326 325 326 322 323 322 322 324 324 324 325 325 326 329 329 332 341
336 337 338 339 337 335 332 333 333 333 334 334 332 332 333 333 334 335 336 337 335 333 332 332 332 332 334 335 335 336 338 338 336 335 334 334 333 333 332 328 325 325 323 324 326 325 324 324 322 324 324 324 323 324 323 324 325 326 328 328 332 341
334 335 335 335 334 333 332 333 337 339 333 338 334 331 330 331 334 334 336 335 336 333 332 331 331 332 333 334 335 336 335 338 337 334 334 333 332 329 327 325 324 323 325 325 325 325 324 325 323 323 325 324 323 322 323 323 324 325 327 327 329 339
334 333 332 333 333 333 333 332 333 332 333 338 331 330 330 331 332 333 333 334 335 331 330 331 331 331 330 332 332 332 333 336 338 335 334 332 331 330 328 326 324 325 322 322 322 323 324 324 322 322 324 325 323 323 323 323 324 325 326 327 328 333
332 332 331 332 331 331 330 330 331 332 333 334 329 331 329 329 331 332 332 333 334 332 331 331 331 331 330 331 331 332 332 335 336 334 334 332 331 331 329 328 325 324 324 322 323 324 325 324 324 323 323 325 324 325 324 323 323 325 326 327 328 330
330 333 329 330 328 328 328 329 330 332 329 329 330 332 330 330 330 330 332 334 333 333 331 331 332 332 330 330 331 331 331 333 333 333 335 333 331 331 330 329 329 327 326 324 325 325 325 324 324 324 324 326 326 325 324 324 323 325 326 327 328 329
323 327 327 328 330 326 325 327 329 326 326 327 330 328 329 330 333 330 333 334 333 332 333 332 333 332 332 332 331 330 331 331 332 334 334 333 333 333 330 330 330 329 328 326 326 326 325 324 324 324 324 325 325 325 324 323 324 324 326 327 327 328
318 320 322 323 324 322 323 327 325 322 324 328 326 328 328 329 328 330 331 333 333 333 332 332 332 333 333 333 332 330 330 331 332 334 333 334 334 332 333 331 329 329 327 326 325 326 327 325 324 324 324 325 325 325 324 323 323 324 325 326 327 328
315 316 318 319 321 321 321 321 321 319 326 322 321 322 327 326 329 329 331 331 332 333 331 330 332 332 334 332 333 332 331 330 331 333 333 333 333 332 332 332 331 329 331 328 326 326 325 324 323 324 324 325 324 324 323 323 322 323 324 325 327 327
317 316 319 319 319 318 317 319 317 317 320 317 319 319 320 321 324 327 330 332 333 334 333 332 331 330 333 333 333 333 334 333 332 332 333 332 331 331 331 331 330 328 326 326 327 327 327 325 324 323 322 323 323 322 323 323 323 323 323 324 325 327
313 314 316 317 313 314 314 313 313 323 318 317 318 317 317 317 321 323 326 326 331 334 333 331 331 330 330 330 330 330 332 335 336 335 333 331 331 331 331 330 331 330 327 328 326 326 325 324 323 322 321 321 322 322 323 323 323 323 323 324 325 325
311 313 313 313 311 311 311 311 312 313 312 312 312 313 315 317 321 322 321 322 325 330 330 330 331 332 329 330 331 331 331 332 335 334 333 330 330 330 331 331 330 331 330 327 327 327 326 322 321 320 319 318 320 320 321 323 323 323 325 323 323 324
311 312 312 312 312 312 312 313 313 316 319 314 313 315 317 320 320 318 320 322 324 328 329 329 329 330 329 332 332 331 331 331 332 333 331 331 331 330 329 330 330 331 332 329 327 327 327 325 321 320 319 319 319 319 320 322 324 325 324 323 323 323
312 311 311 313 314 312 311 312 311 313 314 314 315 315 316 317 317 318 318 319 322 324 327 325 327 328 327 329 328 329 330 331 331 332 331 330 330 330 330 329 328 328 330 331 329 329 328 326 326 325 321 319 319 319 320 322 324 324 324 324 324 325
310 310 311 312 311 309 310 312 311 311 313 313 313 317 315 315 315 317 319 318 317 316 319 319 317 319 321 324 325 327 328 329 330 331 330 329 329 328 329 329 329 328 328 329 330 330 329 327 325 323 321 323 323 321 319 320 323 324 325 325 324 325
309 310 313 311 308 307 307 306 305 307 310 309 314 313 313 312 314 315 316 316 316 315 314 316 316 315 314 324 322 323 323 324 326 327 327 327 328 328 329 328 328 328 327 326 326 328 330 327 323 322 319 319 321 321 322 321 320 323 324 324 323 324
309 310 311 311 311 307 304 307 305 306 307 310 312 310 311 311 312 315 314 313 313 312 313 314 316 315 316 314 315 316 318 319 320 321 323 325 326 327 326 326 327 325 329 327 325 330 331 327 320 318 317 316 316 318 320 320 319 320 322 323 323 324
310 311 310 312 309 306 306 307 305 305 310 308 308 310 309 314 315 312 310 312 312 311 312 312 314 317 316 315 315 316 316 318 320 322 320 321 322 322 323 325 326 323 322 326 327 330 329 327 323 321 319 317 312 314 315 316 318 319 320 320 321 322
310 310 310 312 312 307 308 307 307 309 308 308 309 315 309 308 310 311 311 310 311 310 310 311 313 315 314 313 313 314 315 317 318 318 318 317 318 320 321 322 324 325 325 321 323 324 330 328 326 323 317 316 313 311 310 313 314 317 319 319 319 320
311 311 311 314 310 310 311 310 311 311 312 310 310 308 309 309 308 314 310 308 310 310 311 311 312 313 316 312 312 313 314 314 315 315 316 315 315 316 318 319 322 323 323 321 320 322 325 328 327 328 322 317 314 312 312 314 314 315 316 317 318 319
310 310 312 310 310 311 311 311 310 308 306 306 306 307 306 308 307 309 307 308 310 310 311 309 310 312 315 314 312 311 312 313 313 314 315 313 313 314 315 315 317 319 318 322 323 322 321 324 327 327 326 326 322 315 315 318 316 310 316 317 318 319
311 311 311 309 310 312 308 310 310 309 308 308 307 306 303 303 308 306 307 308 308 308 309 310 310 308 311 312 311 310 311 312 314 314 315 313 313 313 314 316 316 315 316 318 321 319 320 322 324 326 327 327 327 325 324 319 314 315 313 316 318 317
312 313 311 310 310 310 309 308 308 307 310 308 309 309 305 305 305 309 306 308 309 308 307 310 309 309 309 312 310 309 309 310 312 315 315 313 312 312 313 315 315 314 315 316 316 315 316 319 318 320 324 323 324 326 327 326 324 319 317 314 317 322
312 312 311 310 310 308 310 309 308 308 309 308 309 308 307 310 308 310 306 308 308 307 306 306 310 310 308 311 314 308 306 308 309 312 314 312 311 312 311 311 312 312 312 313 314 314 313 314 316 316 318 321 323 323 324 325 325 324 319 316 316 318
311 311 310 310 310 308 308 310 308 308 309 308 308 306 307 307 307 305 306 305 306 306 306 305 306 308 308 308 308 309 307 307 308 312 312 309 309 309 309 310 309 310 310 311 312 313 312 311 313 314 316 317 316 317 320 322 323 322 322 321 315 317
311 311 310 310 309 308 309 309 308 309 309 309 307 307 306 305 305 305 304 305 305 304 305 306 305 306 306 308 309 313 307 308 309 313 310 308 307 307 307 308 308 308 308 308 308 310 311 312 311 311 312 314 314 315 315 314 316 319 319 318 318 318
311 310 310 310 309 308 310 309 308 309 309 309 308 308 307 307 307 307 305 306 305 305 305 306 305 306 305 306 309 306 308 307 309 306 307 306 307 308 307 307 307 307 306 306 306 308 305 307 308 309 310 312 312 314 316 316 317 318 317 317 317 317
312 310 310 310 309 308 309 309 309 309 309 310 308 308 307 306 307 307 306 305 303 304 304 306 306 306 305 305 309 305 306 306 306 308 306 306 305 305 306 306 306 304 304 305 305 305 305 304 305 307 307 309 310 310 311 314 316 317 318 319 318 315
312 311 310 309 309 308 309 309 309 309 309 310 309 308 307 307 307 307 307 307 306 306 305 305 305 306 306 306 307 308 307 305 305 306 307 305 305 306 304 306 304 304 303 304 304 304 304 305 304 305 305 305 307 308 309 311 313 314 315 315 314 314
313 312 310 310 309 309 309 309 309 309 309 309 309 309 308 307 307 306 306 307 307 305 305 305 306 306 307 306 305 304 305 305 304 303 305 304 306 304 305 304 306 305 305 303 303 304 303 302 304 303 303 304 305 307 307 309 311 311 313 314 315 315
314 313 310 310 309 309 309 310 309 308 308 309 310 309 308 308 308 307 307 308 307 306 306 304 303 305 305 305 304 305 306 302 303 304 305 304 303 303 303 303 303 302 301 308 303 302 302 302 302 302 303 303 304 304 305 307 309 310 311 313 313 315
314 313 311 310 310 309 309 309 309 309 308 308 308 308 308 307 307 307 307 307 307 306 304 304 305 305 305 302 303 303 303 303 302 302 302 303 303 302 302 302 301 301 301 301 304 302 302 301 302 302 302 302 303 303 304 305 306 309 310 311 312 314
Wind_Speed
4 5 5 5 4 4 7 10 9 10 9 9 8 10 8 9 7 10 10 9 8 5 3 3 6 5 11 6 8 9 10 11 11 12 11 10 10 10 10 8 6 4 3 6 5 4 6 9 9 7 7 8 7 5 4 4 4 4 4 4 4 4
4 5 5 5 4 4 5 7 6 6 5 6 8 9 7 3 6 1 8 6 4 4 4 3 4 6 4 5 7 9 9 11 11 11 11 10 10 9 8 7 6 5 3 4 6 2 3 8 9 8 7 7 5 2 4 4 4 4 3 4 4 5
4 5 6 6 4 4 5 5 5 6 5 6 5 2 1 5 3 4 4 5 4 4 3 4 4 6 5 9 8 9 10 11 11 11 10 10 10 9 8 6 5 4 2 1 4 2 2 5 4 6 5 3 3 2 3 3 4 4 4 3 3 6
5 6 5 5 5 4 4 4 4 4 5 4 6 5 2 4 4 3 4 4 4 4 3 4 6 9 9 5 6 9 10 10 11 11 11 7 9 9 9 8 6 2 0 1 2 2 1 3 5 2 2 2 1 1 3 3 3 3 4 4 4 8
4 4 5 5 5 4 4 4 3 3 4 4 4 4 4 2 4 4 4 4 3 3 3 3 3 3 3 3 3 4 6 5 4 4 9 3 3 4 4 1 1 1 1 1 1 0 0 0 4 3 2 1 0 0 3 3 3 4 4 4 4 8
4 3 3 4 4 5 5 4 4 4 5 4 4 4 4 4 4 4 3 4 3 4 4 3 3 3 3 4 4 3 4 4 3 4 4 5 4 3 3 2 2 1 1 1 1 1 0 1 1 3 2 1 1 1 3 4 3 3 4 4 4 9
5 4 5 4 3 4 3 3 4 4 5 4 3 4 4 4 4 4 4 4 5 3 3 4 4 4 4 3 4 4 4 3 4 4 4 4 4 3 3 3 3 1 2 1 2 2 2 1 0 1 2 1 1 1 3 4 4 4 5 4 5 10
5 5 4 4 4 4 3 3 4 5 5 4 4 4 4 4 4 4 4 4 4 4 5 4 3 3 3 2 3 4 3 3 3 2 3 4 4 4 4 3 2 1 1 1 2 2 3 3 1 0 2 1 2 2 3 5 5 4 4 4 3 7
5 5 5 5 5 3 3 3 4 4 4 5 4 3 4 3 4 3 3 3 4 5 3 3 4 4 3 4 3 2 2 3 3 3 4 4 4 5 4 3 3 3 2 2 2 3 2 3 2 1 2 1 2 3 3 4 4 5 4 4 5 6
5 6 5 4 4 4 3 4 3 4 1 5 3 4 3 4 4 4 4 4 4 4 5 5 4 3 4 4 4 4 4 5 3 4 4 4 4 5 5 4 3 3 3 3 3 3 2 3 4 3 2 4 3 4 4 4 5 6 5 5 5 5
4 4 4 4 4 4 3 3 3 5 2 1 4 4 3 4 3 3 4 4 3 3 4 4 5 5 4 4 5 5 4 4 5 4 4 4 4 4 5 5 5 4 4 4 5 3 2 3 4 5 3 3 4 5 5 5 5 5 5 5 5 5
3 4 4 4 4 4 3 3 3 4 5 3 2 3 4 4 4 3 3 3 3 3 3 4 5 5 6 4 4 4 4 4 5 3 3 4 4 3 4 5 5 4 4 4 4 4 3 4 5 5 4 5 2 4 5 6 6 7 6 5 5 5
4 4 5 5 4 3 3 3 3 3 3 3 2 3 4 3 2 1 2 2 2 2 3 4 5 6 5 4 4 4 4 4 4 4 3 4 5 3 3 3 3 3 4 3 3 4 3 3 5 7 5 6 4 5 5 5 6 6 7 7 6 6
4 5 4 4 4 4 3 3 1 1 3 3 2 2 2 1 2 1 3 3 2 2 1 2 4 3 3 5 4 4 3 3 3 3 2 2 3 3 3 3 3 4 3 3 4 4 4 5 6 6 6 7 4 6 5 6 6 7 6 6 6 6
4 5 4 4 4 4 3 3 2 2 3 2 1 1 0 0 1 4 3 2 3 2 3 3 1 2 2 2 4 5 4 2 2 2 3 2 2 2 3 3 3 2 2 2 3 2 3 5 5 7 7 6 6 5 5 7 6 5 5 6 5 5
5 6 5 5 4 3 3 2 2 1 3 3 2 1 1 0 1 3 4 2 3 3 3 1 0 1 1 1 1 2 1 1 3 3 4 2 2 3 3 3 3 2 2 3 3 3 4 5 5 7 5 5 5 5 6 6 6 6 6 4 5 5
8 8 6 5 4 3 2 2 2 3 3 2 2 2 1 2 2 3 3 2 3 3 2 2 1 2 2 3 2 0 5 4 3 2 1 2 3 3 4 4 3 3 3 3 3 3 3 3 5 5 3 4 5 4 5 6 6 7 5 6 5 5
7 8 7 6 5 5 4 4 4 5 3 4 2 1 3 4 3 3 3 3 2 1 1 0 1 2 1 0 0 2 3 5 1 2 0 4 3 2 2 2 3 1 2 3 4 2 2 3 3 3 3 3 3 5 6 6 6 5 6 7 6 6
6 6 6 7 5 5 6 6 5 5 5 4 3 4 3 5 3 3 4 3 3 2 1 1 1 1 1 1 2 3 4 3 2 3 5 4 3 2 2 1 2 1 1 2 2 3 3 2 2 1 3 4 4 5 5 4 4 5 6 8 8 8
5 5 4 5 6 6 5 6 7 5 6 4 3 4 4 4 3 3 2 3 3 3 2 2 2 2 3 2 1 1 2 4 1 1 2 2 2 1 1 1 3 1 2 3 2 3 5 5 4 2 1 1 2 2 3 4 5 6 6 5 7 5
4 4 6 5 4 6 5 3 3 4 6 2 3 2 3 2 3 2 2 3 3 3 3 3 3 3 3 3 2 2 1 2 2 1 2 2 3 1 1 2 4 3 5 4 1 2 3 4 5 6 2 2 3 1 2 3 6 6 6 6 4 5
4 4 4 5 4 4 4 6 5 5 4 3 4 4 1 1 2 2 2 2 3 3 4 4 3 3 4 3 3 2 2 2 2 1 1 2 2 0 0 2 1 0 2 0 2 1 0 2 2 2 3 4 3 3 1 3 4 4 5 5 5 6
5 5 4 4 4 4 2 2 3 4 6 3 0 1 2 1 2 3 3 2 2 3 4 4 4 4 4 3 4 3 2 2 2 1 2 4 3 3 2 3 1 1 1 0 1 1 2 0 2 3 1 3 2 1 3 1 1 3 5 5 5 6
6 4 4 4 4 2 4 3 3 6 2 3 3 2 3 3 3 3 3 2 1 2 3 3 3 4 3 3 4 4 3 4 4 2 4 5 6 6 6 5 2 1 0 1 0 1 1 2 2 3 1 2 1 0 4 2 3 4 4 6 6 7
7 6 5 4 5 5 6 5 6 4 4 5 4 4 3 1 1 1 2 2 1 1 3 2 3 4 4 4 3 4 5 4 4 3 4 6 6 5 4 4 4 3 3 2 3 2 2 1 1 1 1 1 2 1 3 2 4 5 1 3 5 7
5 5 5 5 6 7 7 8 7 7 5 3 3 3 3 5 2 2 3 1 0 0 2 2 2 3 3 3 4 3 4 4 4 5 5 5 4 5 6 6 5 5 6 6 2 3 2 3 2 1 3 2 1 1 3 3 3 3 4 2 2 2
7 6 5 5 6 7 7 7 9 9 7 7 7 4 2 2 3 2 0 1 1 1 1 2 1 2 3 3 3 3 4 4 4 4 3 5 6 5 4 4 4 6 5 5 6 5 6 5 4 1 0 2 3 3 4 2 3 2 4 5 3 2
6 6 5 6 6 7 9 7 6 6 6 6 7 7 5 4 2 1 2 1 0 0 1 0 1 1 2 3 3 3 3 4 5 4 4 5 5 3 5 4 5 4 5 6 5 5 3 5 5 4 6 4 3 3 4 4 5 5 5 6 8 5
6 6 6 7 8 6 8 9 8 7 6 4 5 4 3 1 3 1 3 0 0 1 1 1 0 0 1 2 3 3 4 4 4 4 5 5 4 5 6 5 6 7 6 6 5 3 3 4 4 4 5 4 4 3 2 3 4 4 4 5 6 5
7 6 6 8 7 7 6 8 7 7 8 6 4 2 4 4 4 2 4 2 1 0 1 1 1 0 0 2 3 4 4 4 4 4 4 5 4 5 5 5 4 4 4 5 4 5 4 3 3 3 3 3 3 4 3 2 2 2 4 6 8 6
9 7 7 9 8 8 6 7 8 8 8 8 5 5 4 3 3 2 3 4 2 2 0 1 2 1 1 0 2 2 3 4 3 3 4 5 5 4 4 4 3 4 4 5 4 4 4 4 4 4 4 4 4 5 4 4 6 6 5 5 5 6
8 8 7 9 8 8 7 7 6 8 8 8 8 7 8 7 6 6 4 5 3 1 1 0 0 1 0 1 1 3 3 4 4 4 4 3 3 4 3 3 4 4 3 3 3 3 3 4 4 3 4 4 3 4 4 5 6 6 7 6 7 8
12 10 10 9 9 8 7 7 8 8 7 7 7 7 7 7 6 6 6 4 3 3 2 1 2 1 2 1 1 2 3 3 3 3 3 3 3 3 3 4 3 3 3 3 3 3 4 3 3 3 3 2 2 3 3 3 4 6 6 6 6 7
14 11 9 8 9 8 8 8 7 8 8 7 7 7 7 7 7 6 7 6 6 6 6 5 3 4 3 1 1 3 3 3 3 2 1 2 3 3 3 3 3 3 3 2 3 3 3 2 3 2 2 3 3 3 2 3 4 4 5 7 7 7
12 10 10 11 9 9 9 7 7 7 8 7 8 7 7 7 7 7 6 6 6 4 6 5 5 4 1 2 3 4 4 4 3 2 1 2 2 2 1 2 1 1 1 1 3 2 2 2 2 1 2 2 2 4 3 3 4 4 3 4 5 6
15 13 12 11 11 11 9 7 7 8 8 8 7 7 6 6 6 7 7 7 7 6 5 4 3 2 2 3 4 4 3 3 2 2 2 2 3 3 3 2 2 1 2 0 1 1 1 1 1 0 1 1 0 2 3 4 4 4 4 4 4 4
12 10 11 12 11 10 9 8 8 8 7 7 8 9 9 9 8 6 6 6 6 6 4 3 4 3 4 3 3 3 3 2 2 2 1 1 1 1 1 1 1 2 2 0 1 0 0 0 0 0 1 1 1 1 2 2 3 4 4 4 4 4
Wind_Direction
134 132 124 119 118 121 136 139 143 143 142 147 146 141 153 166 168 152 149 140 132 123 123 138 149 149 154 151 153 153 154 151 154 149 148 152 156 159 165 169 174 202 170 134 126 100 69 68 65 58 51 42 60 100 121 124 132 129 140 154 152 173
135 137 132 125 127 122 121 120 124 135 146 141 153 147 155 151 169 168 136 122 127 133 134 128 144 159 140 155 160 159 157 158 153 149 148 153 158 165 171 175 179 198 215 142 109 70 64 71 68 57 52 43 46 83 126 135 135 141 148 158 164 191
136 139 134 137 127 126 118 126 133 141 147 154 126 148 160 143 125 159 143 126 136 132 133 151 159 158 163 165 167 165 167 161 155 147 152 156 161 165 171 180 186 196 241 123 82 78 85 92 80 61 49 41 47 61 120 136 147 151 154 165 170 202
146 144 132 129 135 124 130 131 136 140 142 141 133 151 206 130 138 176 147 131 132 145 149 156 182 176 162 174 170 168 167 165 157 151 155 158 163 165 168 178 197 188 87 18 79 84 70 88 99 99 70 56 39 56 144 152 155 153 152 181 180 208
139 135 131 132 135 126 129 122 117 118 112 113 119 124 140 122 144 171 139 132 143 144 132 128 128 160 140 177 169 176 170 160 160 154 151 125 144 168 149 135 168 126 357 302 1 109 46 358 100 111 113 125 220 56 162 152 161 168 181 186 188 201
129 124 121 118 135 145 136 127 125 123 106 108 121 122 130 139 128 176 128 140 140 126 130 123 120 137 153 172 166 170 170 158 166 153 145 141 138 134 126 151 180 194 247 263 271 326 76 297 102 116 112 134 187 151 173 165 171 189 195 198 201 198
126 116 113 122 96 87 102 117 117 114 112 121 119 118 123 128 133 146 134 144 143 142 132 135 142 164 171 160 167 175 181 169 178 158 148 145 149 138 141 169 198 205 255 300 329 336 329 311 351 126 116 138 174 169 178 183 180 190 207 210 209 204
125 125 120 111 103 99 101 117 133 116 108 137 127 121 126 132 136 137 145 152 144 150 148 156 168 174 183 170 163 177 170 186 194 166 135 147 143 135 152 176 184 216 240 269 277 296 310 308 312 147 113 168 169 181 202 193 184 196 206 215 225 218
123 126 127 127 118 115 101 79 76 100 117 136 115 125 126 128 138 140 138 144 149 144 162 168 177 188 172 179 143 269 180 179 167 178 151 153 160 152 151 174 198 221 225 246 254 270 278 286 282 246 145 185 171 207 212 210 196 191 206 213 216 227
134 136 134 123 126 126 125 113 102 83 65 128 132 130 129 138 152 148 148 159 162 158 165 172 183 181 175 181 180 197 176 174 182 189 171 172 171 161 158 165 198 223 238 250 262 253 248 275 281 268 223 159 180 199 208 211 200 196 200 207 217 227
130 133 125 120 120 116 121 131 137 123 90 123 136 136 142 150 164 172 162 158 160 163 161 175 178 183 194 181 175 186 182 162 182 209 187 170 165 165 163 172 188 206 217 237 248 260 263 274 282 285 275 253 180 180 202 213 208 199 193 205 210 218
117 122 119 123 124 130 141 154 147 119 132 139 133 143 159 164 172 184 168 155 156 162 160 175 181 190 191 185 177 184 184 181 171 205 200 171 155 143 163 184 188 203 215 214 240 251 239 251 268 263 261 256 207 190 202 201 201 195 201 197 204 219
116 114 125 128 132 135 143 156 159 154 134 138 168 159 161 186 172 170 133 133 128 148 169 178 196 195 192 192 194 190 189 193 190 176 178 177 155 133 131 146 186 193 207 213 234 248 245 235 251 257 251 253 200 212 198 198 214 195 200 198 199 209
125 125 123 118 123 133 149 161 193 148 129 135 183 175 185 159 122 45 48 26 26 338 283 236 191 180 173 192 200 192 193 210 206 197 188 169 161 157 167 145 146 137 192 198 215 227 218 237 240 249 247 249 207 215 191 199 208 202 199 202 202 201
133 131 126 131 134 140 146 163 172 199 97 119 150 204 291 17 58 92 112 127 104 150 218 239 234 141 172 192 194 206 206 184 175 203 231 212 186 215 224 193 154 153 183 225 240 233 227 239 243 238 236 230 226 190 190 202 201 206 204 207 192 209
129 132 147 151 146 146 156 177 190 121 88 116 140 177 207 88 65 67 90 120 157 198 214 279 304 69 302 327 92 236 39 77 173 190 213 209 194 225 230 228 209 167 216 255 237 246 212 239 242 244 233 218 223 173 198 193 197 201 209 189 206 206
144 143 147 136 126 112 85 84 92 100 115 92 132 207 164 97 64 71 70 111 180 219 243 163 171 173 179 232 225 326 45 354 296 200 144 150 227 232 230 227 224 192 209 265 272 280 292 275 265 247 226 215 221 188 193 197 193 201 180 191 206 210
150 147 146 143 134 120 113 100 91 90 81 79 71 97 102 85 73 65 85 92 103 147 226 338 167 200 83 303 155 119 220 235 314 358 39 247 225 219 252 268 267 203 180 213 239 267 306 315 267 247 223 202 204 197 202 204 200 185 181 197 202 206
145 144 132 127 122 108 105 90 78 83 80 75 66 61 84 92 90 93 102 110 105 94 96 15 24 33 97 111 65 134 234 216 199 210 242 243 256 276 274 352 314 12 306 251 254 286 281 295 300 278 225 212 197 206 201 175 192 185 197 200 200 207
151 136 123 114 112 99 87 95 101 82 70 65 60 79 62 92 99 106 114 102 88 84 60 54 47 27 21 43 61 104 214 267 127 239 302 340 67 79 318 312 6 182 245 283 298 321 333 337 331 341 348 309 206 198 205 189 186 198 203 206 210 195
167 145 133 131 122 123 112 87 64 91 121 109 106 73 64 49 76 81 87 86 101 103 90 65 47 55 54 78 99 83 64 351 351 107 183 172 102 126 78 84 57 360 237 242 340 360 321 331 360 330 352 347 325 240 234 200 198 201 201 204 203 204
155 158 151 152 150 136 161 167 158 164 144 149 120 116 108 82 98 84 71 88 82 73 69 72 73 72 72 79 75 63 77 76 44 15 5 59 99 159 168 90 77 154 250 197 211 108 282 339 324 281 336 334 334 317 271 210 217 214 206 200 190 201
167 165 174 157 134 157 156 144 133 158 145 134 288 233 135 105 106 96 53 39 60 71 84 72 72 75 76 63 77 80 61 50 35 26 44 42 39 23 39 83 132 213 323 119 239 333 25 113 239 156 152 312 308 335 316 335 276 243 216 200 192 204
175 174 171 181 152 161 122 112 69 111 88 110 151 120 87 69 69 85 73 26 22 100 84 77 76 86 80 72 81 85 83 63 49 35 66 56 43 41 31 43 79 278 288 40 94 142 137 96 56 13 325 190 247 111 316 297 302 280 220 218 197 206
175 178 182 163 137 129 106 90 92 73 79 71 47 42 59 15 17 117 99 76 48 30 79 82 78 85 89 83 69 83 85 77 64 43 63 66 58 49 45 48 47 48 11 2 354 9 0 83 305 146 143 357 319 306 227 281 347 286 310 212 225 219
175 174 179 162 154 144 145 139 131 124 124 105 113 119 171 201 227 177 181 200 332 31 80 76 35 78 95 96 86 87 89 87 77 57 60 78 73 52 40 49 42 55 37 18 343 346 13 33 347 265 165 210 132 206 323 329 358 291 321 237 290 257
178 178 175 162 167 147 145 151 157 161 162 164 163 221 236 240 188 222 211 161 180 33 16 109 65 76 91 86 90 77 80 84 82 69 63 59 54 58 54 45 39 53 48 37 38 45 22 11 330 4 33 238 250 217 212 276 275 336 324 319 349 351
181 177 176 161 173 168 155 161 152 153 159 159 171 191 202 210 213 207 137 182 42 28 354 8 103 65 100 112 97 72 70 72 71 73 69 63 60 49 55 42 49 59 50 46 50 57 37 24 26 355 350 340 331 320 278 254 245 237 268 289 298 302
185 178 178 169 173 190 164 166 160 156 161 183 174 181 171 168 166 183 145 72 106 320 356 14 24 73 67 108 112 111 88 71 70 67 77 74 65 58 58 55 44 43 45 41 39 38 56 34 29 16 349 359 321 277 271 260 267 268 281 287 282 273
189 189 182 177 180 185 178 157 156 167 163 173 161 128 137 160 180 170 173 214 265 323 347 7 9 20 31 57 100 107 100 91 89 84 78 84 80 69 63 62 61 65 59 59 38 41 46 39 45 16 9 337 0 346 333 294 266 273 250 253 280 292
189 188 186 182 180 186 181 172 168 170 166 166 168 154 142 176 170 155 183 226 241 242 340 303 346 11 18 49 75 71 92 98 91 82 84 80 76 86 86 90 84 73 66 71 57 54 38 33 37 34 22 16 10 8 346 328 328 324 306 284 279 278
187 190 190 189 186 189 180 184 173 168 168 170 164 167 173 182 188 185 192 204 233 322 284 325 17 359 351 11 56 48 56 68 70 76 78 94 91 93 95 88 73 72 74 74 70 67 62 40 30 35 27 16 15 355 351 347 339 327 326 311 298 297
194 190 190 188 190 191 187 186 177 174 172 165 171 175 182 184 185 184 189 196 188 213 257 290 267 206 267 235 109 92 82 82 71 75 92 76 75 81 86 91 96 89 78 65 67 73 64 45 52 47 8 2 10 8 348 332 330 330 322 321 319 313
197 189 185 185 190 190 200 193 184 177 173 165 176 182 188 187 189 188 183 190 189 191 194 208 216 217 214 159 127 137 121 119 128 133 97 88 80 86 86 86 89 80 72 107 93 80 82 63 52 41 23 10 353 347 334 331 326 328 332 332 330 325
196 191 187 189 188 194 198 199 193 185 175 173 176 184 194 191 182 184 194 189 198 186 185 204 195 227 189 160 140 132 136 139 156 155 132 91 85 86 88 54 70 87 79 115 107 108 101 94 49 21 10 353 338 338 333 327 327 317 315 309 309 315
194 190 191 190 193 192 197 196 197 186 186 179 179 181 189 193 194 190 187 187 193 191 197 183 201 170 178 141 144 127 116 128 128 93 70 62 43 35 34 24 353 31 336 135 99 82 133 104 66 351 288 279 16 311 315 320 317 306 308 301 299 297
196 193 193 195 193 192 193 191 202 197 185 182 179 182 190 195 193 194 190 193 186 194 177 173 174 173 151 157 143 141 130 143 140 124 85 70 47 28 33 12 344 334 321 92 125 127 171 105 224 204 269 276 272 249 281 299 310 314 313 316 312 305